This is the latest recevied weather packets stored in our database for station/object KD9ZDW. If no packets are shown the sender has not sent any weather packets the latest 1 day(s).
| Time | Temp. | Humidity | Pressure | Rain* | Wind** | Luminosity | Snow |
|---|---|---|---|---|---|---|---|
| 1778025498 | 8.89° C | 94% | 1010.8 hPa | 3.05 mm | 0 m/s | 9 W/m² | - |
| 1778025196 | 8.89° C | 94% | 1010.9 hPa | 1.78 mm | 0 m/s | 8 W/m² | - |
| 1778024893 | 8.89° C | 94% | 1010.9 hPa | 1.78 mm | 0 m/s | 10 W/m² | - |
| 1778024590 | 8.89° C | 94% | 1010.8 hPa | 1.78 mm | 0 m/s | 11 W/m² | - |
| 1778024287 | 8.89° C | 94% | 1011 hPa | 0 mm | 0.45 m/s, 292° | 10 W/m² | - |
| 1778023985 | 8.89° C | 94% | 1010.8 hPa | 1.27 mm | 0 m/s | 12 W/m² | - |
| 1778023682 | 8.89° C | 94% | 1010.5 hPa | 1.27 mm | 0 m/s | 15 W/m² | - |
| 1778023379 | 8.89° C | 94% | 1010.5 hPa | 0 mm | 0 m/s | 15 W/m² | - |
| 1778023075 | 8.89° C | 94% | 1010.7 hPa | 0 mm | 0 m/s | 15 W/m² | - |
| 1778022774 | 8.89° C | 94% | 1010.7 hPa | 1.78 mm | 0 m/s | 23 W/m² | - |
| 1778022472 | 8.89° C | 94% | 1010.8 hPa | 1.78 mm | 0 m/s | 17 W/m² | - |
| 1778022169 | 8.89° C | 93% | 1011.1 hPa | 0 mm | 0.45 m/s, 252° | 20 W/m² | - |
| 1778021865 | 8.89° C | 93% | 1011 hPa | 0 mm | 0 m/s | 28 W/m² | - |
| 1778021563 | 8.33° C | 93% | 1010.8 hPa | 1.27 mm | 0 m/s | 21 W/m² | - |
| 1778021257 | 8.89° C | 93% | 1010.9 hPa | 1.27 mm | 0.45 m/s, 273° | 27 W/m² | - |
| 1778020955 | 8.89° C | 93% | 1010.8 hPa | 1.78 mm | 0 m/s | 24 W/m² | - |
| 1778020653 | 8.89° C | 93% | 1010.7 hPa | 1.78 mm | 0 m/s | 30 W/m² | - |
| 1778020349 | 8.89° C | 93% | 1010.9 hPa | 0 mm | 0 m/s | 48 W/m² | - |
| 1778020045 | 8.89° C | 93% | 1010.9 hPa | 1.27 mm | 0 m/s | 52 W/m² | - |
| 1778019741 | 8.89° C | 93% | 1011 hPa | 1.27 mm | 0 m/s | 44 W/m² | - |
| 1778019439 | 8.89° C | 93% | 1011 hPa | 1.78 mm | 0 m/s | 50 W/m² | - |
| 1778019135 | 8.89° C | 93% | 1011.1 hPa | 1.27 mm | 0 m/s | 39 W/m² | - |
| 1778018832 | 8.89° C | 92% | 1011.1 hPa | 1.27 mm | 0.45 m/s, 263° | 44 W/m² | - |
| 1778018530 | 8.89° C | 92% | 1010.9 hPa | 1.78 mm | 0 m/s | 40 W/m² | - |
| 1778018228 | 8.89° C | 92% | 1010.9 hPa | 3.05 mm | 0 m/s | 28 W/m² | - |
* Rain latest hour (hover to see other rain measurements)
** Current wind speed in m/s (hover to see current wind gust speed)